Location: Majestic Skies Ranch
(34.0000°N, 105.9300°W)
Time: 15:03:22
(UTC-07:00)

ISS - Visible Passes

Search period start: 10 February 2016 00:00
Search period end: 20 February 2016 00:00
Orbit: 399 x 408 km, 51.6° (Epoch: 10 February)

Date Brightness Start Highest point End Pass type
(mag) Time Alt. Az. Time Alt. Az. Time Alt. Az.
16 Feb -1.2 19:24:40 10° NNW 19:25:53 18° N 19:25:53 18° N visible
17 Feb -1.4 18:32:32 10° N 18:34:33 15° NNE 18:35:44 13° NE visible
17 Feb -0.1 20:08:02 10° WNW 20:08:23 12° WNW 20:08:23 12° WNW visible
18 Feb -3.4 19:15:16 10° NW 19:18:23 66° NNE 19:18:23 66° NNE visible
19 Feb -2.4 18:22:43 10° NNW 18:25:40 31° NE 18:28:34 10° ESE visible
19 Feb -0.5 19:59:37 10° W 20:01:15 17° WSW 20:01:15 17° WSW visible
